SCP
-0 -0 -0 -0 -0 -0 -0 -0 -0 -0 -0 -0 -0 -0 0 0 0 0 0 0 -0 0 0 0 0 0 0 0 0 0 0 -0
0 -0 -0 -0 -0 -0 -0 -0 -0 -0 -0 -0 -0 0 0 0 0 0 0 0 0 0 0 0 0 0 0 0 0 0 0 -0
0 -0 -0 -0 0 0 0 -0 -0 -0 -0 -0 0 0 0 0 0 0 0 0 0 0 0 0 0 0 0 0 0 0 -0 -0
-0 0 -0 0 0 0 0 0 0 -0 0 -0 0 0 0 0 0 0 0 0 0 0 0 0 0 0 0 0 0 -0 -0 -0
-0 -0 -0 0 0 -0 0 0 0 0 0 0 0 0 0 0 0 0 0 0 0 0 0 0 0 0 0 -0 -0 -0 -0 -0
-0 -0 -0 0 0 0 0 0 0 0 0 0 0 0 0 0 0 0 0 0 0 0 0 0 0 0 0 -0 -0 -0 -0 -0
-0 -0 0 0 0 0 0 0 -0 -0 -0 -0 0 0 -0 0 0 0 0 0 0 0 0 0 0 0 -0 0 -0 -0 -0 -0
-0 0 0 0 0 0 0 0 -0 -0 -0 -0 0 0 0 0 0 0 0 0 0 -0 0 0 0 -0 0 -0 0 0 0 -0
0 0 0 0 0 -0 0 0 0 -0 -0 -0 0 0 0 0 0 0 0 0 0 0 -0 -0 -0 -0 0 0 0 0 0 0
0 0 0 0 0 0 0 0 0 -0 0 0 0 0 0 0 0 0 0 -0 0 0 0 0 0 0 0 0 0 0 0 0
0 0 0 0 0 0 0 0 0 0 0 -0 0 0 -0 0 0 0 0 0 0 0 0 0 0 0 0 -0 0 -0 0 0
0 0 0 0 0 0 0 0 0 0 0 0 0 0 0 0 0 0 0 0 0 0 0 0 0 0 0 0 0 0 0 0
0 0 0 0 0 0 0 1 0 0 0 0 0 0 0 0 0 0 0 0 0 0 0 0 0 0 0 0 0 0 1 1
0 0 0 0 0 0 0 1 0 0 0 0 0 0 1 0 0 1 0 0 1 0 0 0 0 0 0 0 0 2 1 1
0 0 0 1 1 1 1 1 0 0 0 0 0 0 1 0 0 1 0 1 1 0 0 0 1 0 0 0 1 1 1 1
1 1 1 0 1 1 1 1 1 1 0 0 0 1 1 1 0 1 0 1 2 1 0 2 1 2 1 1 1 0 0 0
1 2 2 1 1 1 1 1 1 1 1 1 0 1 1 1 1 1 1 1 2 1 2 3 3 1 1 1 1 0 0 0
1 2 2 1 1 1 0 1 1 1 2 1 2 3 3 2 2 2 3 2 5 3 1 3 3 2 1 2 2 1 0 0
0 1 2 2 1 1 1 1 1 1 2 2 2 2 3 3 3 2 3 3 5 2 2 3 3 3 3 2 2 1 1 2
Wind_Speed_500mb
38 39 45 45 43 43 44 45 44 40 36 41 42 37 34 31 29 27 26 25 26 29 27 25 25 24 23 22 24 28 34 31
37 37 44 44 44 43 44 45 45 41 42 44 41 37 33 30 29 26 25 25 27 29 28 25 22 19 18 18 19 25 21 22
38 36 43 46 44 43 42 44 46 46 47 46 40 36 33 31 27 25 22 23 26 27 26 24 20 17 15 15 15 20 28 22
38 37 42 46 47 44 43 44 47 50 50 46 41 37 33 30 27 24 21 20 24 26 26 23 18 14 14 12 11 14 18 28
41 38 41 43 44 42 46 47 49 51 49 44 40 36 33 29 26 21 18 19 22 22 21 19 17 15 13 13 13 16 18 25
41 41 41 42 41 41 38 48 52 51 47 42 39 37 32 25 23 20 21 20 21 21 19 17 15 13 13 12 10 10 14 11
41 44 41 43 43 42 38 41 45 46 43 39 36 36 29 23 19 20 22 20 21 20 18 17 15 14 14 11 10 14 9 17
43 45 43 45 46 45 42 39 41 38 34 33 32 32 29 25 26 25 20 23 21 21 16 17 17 19 15 30 11 9 6 19
45 45 44 45 46 47 42 41 44 42 39 36 34 32 31 29 27 29 21 19 20 21 21 17 15 14 10 12 8 12 8 7
45 48 47 47 47 47 44 41 43 45 44 39 37 37 33 32 28 28 26 25 22 23 25 21 22 16 16 20 6 11 9 16
42 45 46 48 49 51 50 42 45 45 45 45 41 42 42 34 33 31 30 29 27 27 25 25 23 19 22 22 27 12 11 12
40 41 44 47 47 50 48 45 47 46 46 47 45 44 43 42 38 37 32 30 30 29 30 27 25 25 26 22 14 10 15 13
39 43 44 47 50 50 51 51 47 47 47 45 47 44 46 46 42 45 35 34 33 32 33 31 28 29 28 27 24 21 16 14
38 40 46 50 54 54 55 51 52 50 51 50 47 47 47 48 47 43 40 37 38 36 35 35 33 33 30 28 24 40 43 31
38 41 44 51 61 58 57 57 52 51 52 52 52 50 49 47 49 51 43 43 42 43 40 39 39 37 35 30 25 30 34 17
33 40 47 49 59 68 66 62 62 62 54 52 52 53 53 49 46 52 45 46 47 49 46 47 41 38 38 32 32 16 20 24
17 25 44 49 53 65 61 66 62 60 59 54 50 53 53 49 50 53 55 50 56 50 50 50 51 44 43 40 40 23 17 21
6 13 28 44 47 58 61 61 60 55 57 55 57 52 54 54 52 56 56 62 53 66 52 62 58 56 45 46 53 38 27 28
7 2 5 23 38 46 56 62 63 65 58 59 52 50 49 60 62 54 56 56 69 56 64 61 67 62 65 54 53 63 48 20
Wind_Direction_500mb
158 161 168 167 166 169 170 173 177 175 170 166 161 153 149 147 143 138 138 137 140 141 136 128 120 113 105 98 95 95 110 111
160 168 172 170 167 170 172 172 176 176 171 168 163 158 156 152 149 144 142 140 141 144 141 136 129 118 107 103 98 99 114 98
162 170 173 173 171 171 174 176 176 174 171 170 168 164 162 160 158 152 150 146 147 149 148 146 139 132 122 114 105 102 114 115
167 172 172 173 175 176 176 177 176 173 172 173 172 171 169 168 166 163 161 156 154 154 155 155 154 150 142 131 120 112 115 110
171 176 173 172 175 180 178 177 177 175 175 177 177 177 177 177 175 173 173 173 167 166 169 167 167 165 160 143 123 125 128 133
176 178 177 176 178 177 181 180 178 180 182 183 184 184 184 179 185 187 186 194 184 182 181 176 170 167 158 143 144 143 162 180
184 182 181 179 182 179 183 187 181 187 188 187 191 190 183 181 190 197 220 203 199 197 188 179 171 162 164 160 120 123 195 107
191 186 186 182 184 181 185 189 185 192 192 195 197 203 183 194 203 191 223 212 206 203 190 191 172 174 203 194 177 168 197 188
191 189 188 188 187 186 188 193 189 191 196 200 202 206 195 200 209 202 210 205 205 216 196 194 203 223 189 222 160 182 209 229
191 191 191 190 190 190 192 194 196 195 199 204 204 213 202 209 211 206 207 208 208 207 199 207 211 196 199 216 287 225 233 247
197 196 195 196 194 190 194 197 199 201 203 204 208 213 209 213 214 208 208 208 214 213 214 208 218 204 209 218 232 178 240 252
200 200 199 199 201 197 201 198 201 205 207 209 211 209 213 212 213 206 213 218 215 218 217 212 208 206 215 216 218 206 233 226
204 203 204 204 207 206 203 203 205 208 211 213 214 214 217 215 205 219 213 221 220 219 219 215 210 216 216 216 223 222 191 192
207 209 207 207 206 210 206 209 208 210 212 215 215 217 220 217 214 212 215 220 219 221 221 218 218 219 218 217 217 220 222 224
214 218 218 211 207 209 209 207 215 215 217 215 217 217 220 221 218 224 215 217 224 222 223 222 222 222 222 216 208 209 231 199
214 221 220 217 214 205 212 210 211 216 219 220 220 221 219 221 221 222 222 221 226 223 227 226 217 217 216 212 207 169 201 198
223 222 228 224 219 213 212 213 216 214 217 220 223 225 222 221 222 222 223 220 229 230 232 222 215 215 218 217 215 206 206 221
251 290 232 233 229 222 213 219 217 217 217 218 218 220 223 222 224 221 229 225 229 235 229 231 225 217 220 221 219 218 223 231
144 279 203 236 239 237 228 222 220 216 213 216 219 220 212 214 216 223 228 233 225 233 225 241 236 229 223 224 231 223 229 230
Wind_Speed_850mb
38 39 45 45 43 43 44 45 44 40 36 41 42 37 34 31 29 27 26 25 26 29 27 25 25 24 23 22 24 28 34 31
37 37 44 44 44 43 44 45 45 41 42 44 41 37 33 30 29 26 25 25 27 29 28 25 22 19 18 18 19 25 21 22
38 36 43 46 44 43 42 44 46 46 47 46 40 36 33 31 27 25 22 23 26 27 26 24 20 17 15 15 15 20 28 22
38 37 42 46 47 44 43 44 47 50 50 46 41 37 33 30 27 24 21 20 24 26 26 23 18 14 14 12 11 14 18 28
41 38 41 43 44 42 46 47 49 51 49 44 40 36 33 29 26 21 18 19 22 22 21 19 17 15 13 13 13 16 18 25
41 41 41 42 41 41 38 48 52 51 47 42 39 37 32 25 23 20 21 20 21 21 19 17 15 13 13 12 10 10 14 11
41 44 41 43 43 42 38 41 45 46 43 39 36 36 29 23 19 20 22 20 21 20 18 17 15 14 14 11 10 14 9 17
43 45 43 45 46 45 42 39 41 38 34 33 32 32 29 25 26 25 20 23 21 21 16 17 17 19 15 30 11 9 6 19
45 45 44 45 46 47 42 41 44 42 39 36 34 32 31 29 27 29 21 19 20 21 21 17 15 14 10 12 8 12 8 7
45 48 47 47 47 47 44 41 43 45 44 39 37 37 33 32 28 28 26 25 22 23 25 21 22 16 16 20 6 11 9 16
42 45 46 48 49 51 50 42 45 45 45 45 41 42 42 34 33 31 30 29 27 27 25 25 23 19 22 22 27 12 11 12
40 41 44 47 47 50 48 45 47 46 46 47 45 44 43 42 38 37 32 30 30 29 30 27 25 25 26 22 14 10 15 13
39 43 44 47 50 50 51 51 47 47 47 45 47 44 46 46 42 45 35 34 33 32 33 31 28 29 28 27 24 21 16 14
38 40 46 50 54 54 55 51 52 50 51 50 47 47 47 48 47 43 40 37 38 36 35 35 33 33 30 28 24 40 43 31
38 41 44 51 61 58 57 57 52 51 52 52 52 50 49 47 49 51 43 43 42 43 40 39 39 37 35 30 25 30 34 17
33 40 47 49 59 68 66 62 62 62 54 52 52 53 53 49 46 52 45 46 47 49 46 47 41 38 38 32 32 16 20 24
17 25 44 49 53 65 61 66 62 60 59 54 50 53 53 49 50 53 55 50 56 50 50 50 51 44 43 40 40 23 17 21
6 13 28 44 47 58 61 61 60 55 57 55 57 52 54 54 52 56 56 62 53 66 52 62 58 56 45 46 53 38 27 28
7 2 5 23 38 46 56 62 63 65 58 59 52 50 49 60 62 54 56 56 69 56 64 61 67 62 65 54 53 63 48 20
Wind_Direction_850mb
158 161 168 167 166 169 170 173 177 175 170 166 161 153 149 147 143 138 138 137 140 141 136 128 120 113 105 98 95 95 110 111
160 168 172 170 167 170 172 172 176 176 171 168 163 158 156 152 149 144 142 140 141 144 141 136 129 118 107 103 98 99 114 98
162 170 173 173 171 171 174 176 176 174 171 170 168 164 162 160 158 152 150 146 147 149 148 146 139 132 122 114 105 102 114 115
167 172 172 173 175 176 176 177 176 173 172 173 172 171 169 168 166 163 161 156 154 154 155 155 154 150 142 131 120 112 115 110
171 176 173 172 175 180 178 177 177 175 175 177 177 177 177 177 175 173 173 173 167 166 169 167 167 165 160 143 123 125 128 133
176 178 177 176 178 177 181 180 178 180 182 183 184 184 184 179 185 187 186 194 184 182 181 176 170 167 158 143 144 143 162 180
184 182 181 179 182 179 183 187 181 187 188 187 191 190 183 181 190 197 220 203 199 197 188 179 171 162 164 160 120 123 195 107
191 186 186 182 184 181 185 189 185 192 192 195 197 203 183 194 203 191 223 212 206 203 190 191 172 174 203 194 177 168 197 188
191 189 188 188 187 186 188 193 189 191 196 200 202 206 195 200 209 202 210 205 205 216 196 194 203 223 189 222 160 182 209 229
191 191 191 190 190 190 192 194 196 195 199 204 204 213 202 209 211 206 207 208 208 207 199 207 211 196 199 216 287 225 233 247
197 196 195 196 194 190 194 197 199 201 203 204 208 213 209 213 214 208 208 208 214 213 214 208 218 204 209 218 232 178 240 252
200 200 199 199 201 197 201 198 201 205 207 209 211 209 213 212 213 206 213 218 215 218 217 212 208 206 215 216 218 206 233 226
204 203 204 204 207 206 203 203 205 208 211 213 214 214 217 215 205 219 213 221 220 219 219 215 210 216 216 216 223 222 191 192
207 209 207 207 206 210 206 209 208 210 212 215 215 217 220 217 214 212 215 220 219 221 221 218 218 219 218 217 217 220 222 224
214 218 218 211 207 209 209 207 215 215 217 215 217 217 220 221 218 224 215 217 224 222 223 222 222 222 222 216 208 209 231 199
214 221 220 217 214 205 212 210 211 216 219 220 220 221 219 221 221 222 222 221 226 223 227 226 217 217 216 212 207 169 201 198
223 222 228 224 219 213 212 213 216 214 217 220 223 225 222 221 222 222 223 220 229 230 232 222 215 215 218 217 215 206 206 221
251 290 232 233 229 222 213 219 217 217 217 218 218 220 223 222 224 221 229 225 229 235 229 231 225 217 220 221 219 218 223 231
144 279 203 236 239 237 228 222 220 216 213 216 219 220 212 214 216 223 228 233 225 233 225 241 236 229 223 224 231 223 229 230